DW7380 Weather Reports


Display with metric or nautical units.
time (UTC)temp
F
wind
direction
speed
MPH
gust
MPH
rain 1hr
in
rain 24hr
in
rain mn
in
humidity
%
barometer
mb
20180921073005 62 191 0.0 8.0 0.00 0.00 0.00 88 1011.9
20180921072505 61 166 0.0 5.0 0.00 0.00 0.00 88 1011.9
20180921072005 61 201 0.0 15.0 0.00 0.00 0.00 88 1011.8
20180921071505 61 186 9.0 11.0 0.00 0.00 0.00 88 1011.7
20180921071005 61 224 4.0 12.0 0.00 0.00 0.00 88 1011.6
20180921070505 61 179 2.0 14.0 0.00 0.00 0.00 88 1011.7
20180921070005 61 183 4.0 12.0 0.00 0.00 0.00 88 1011.7
20180921065504 61 201 2.0 14.0 0.00 0.00 0.00 88 1011.5
20180921065005 61 161 0.0 8.0 0.00 0.00 0.00 89 1011.5
20180921064505 61 189 0.0 8.0 0.00 0.00 0.00 89 1011.5
20180921064005 61 174 6.0 11.0 0.00 0.00 0.00 89 1011.4
20180921063504 61 137 1.0 11.0 0.00 0.00 0.00 89 1011.3
20180921063005 61 147 3.0 13.0 0.00 0.00 0.00 89 1011.3
20180921062505 61 168 0.0 11.0 0.00 0.00 0.00 89 1011.4
20180921062005 61 231 0.0 14.0 0.00 0.00 0.00 89 1011.4
20180921061505 61 214 1.0 3.0 0.00 0.00 0.00 88 1011.3
20180921061005 61 152 0.0 4.0 0.00 0.00 0.00 88 1011.3
20180921060505 61 206 0.0 8.0 0.00 0.00 0.00 89 1011.2
20180921060004 61 181 0.0 9.0 0.00 0.00 0.00 89 1011.2
20180921055505 61 197 1.0 7.0 0.00 0.00 0.00 89 1011.1
20180921055005 60 178 1.0 7.0 0.00 0.00 0.00 90 1011.2
20180921054505 60 206 1.0 9.0 0.00 0.00 0.00 90 1011.1
20180921054005 60 177 6.0 14.0 0.00 0.00 0.00 90 1011.1
20180921053505 60 127 7.0 9.0 0.00 0.00 0.00 90 1011.2
20180921053005 60 197 1.0 8.0 0.00 0.00 0.00 90 1011.2
20180921052004 60 149 0.0 14.0 0.00 0.00 0.00 90 1011.0
20180921051505 60 169 1.0 12.0 0.00 0.00 0.00 91 1011.1
20180921051005 60 172 1.0 11.0 0.00 0.00 0.00 91 1011.1
20180921050504 60 197 7.0 11.0 0.00 0.00 0.00 91 1011.2
20180921050005 60 187 6.0 13.0 0.00 0.00 0.00 90 1011.3
20180921045005 60 193 0.0 10.0 0.00 0.00 0.00 90 1011.2
20180921044504 60 162 1.0 6.0 0.00 0.00 0.00 90 1011.2
20180921044005 60 192 0.0 9.0 0.00 0.00 0.00 90 1011.1
20180921043505 60 182 5.0 11.0 0.00 0.00 0.00 90 1011.1
20180921043005 60 199 6.0 16.0 0.00 0.00 0.00 90 1011.1
20180921042505 60 97 0.0 8.0 0.00 0.00 0.00 90 1011.1
20180921042005 60 187 3.0 12.0 0.00 0.00 0.00 90 1011.0
20180921041505 60 183 7.0 10.0 0.00 0.00 0.00 90 1011.0
20180921041005 61 143 1.0 12.0 0.00 0.00 0.00 89 1010.9
20180921040505 61 236 0.0 7.0 0.00 0.00 0.00 89 1010.8
20180921040005 61 195 0.0 11.0 0.00 0.00 0.00 89 1010.8
20180921035505 61 33 0.0 11.0 0.00 0.00 0.00 89 1010.8
20180921035005 61 183 0.0 15.0 0.00 0.00 0.00 89 1010.8
20180921034505 61 129 0.0 10.0 0.00 0.00 0.00 89 1010.8
20180921034005 61 167 3.0 11.0 0.00 0.00 0.00 89 1010.8
20180921033505 61 183 9.0 12.0 0.00 0.00 0.00 89 1010.9
20180921033005 61 185 15.0 15.0 0.00 0.00 0.00 89 1010.7
20180921032505 61 180 3.0 11.0 0.00 0.00 0.00 89 1010.6
20180921032005 61 177 0.0 8.0 0.00 0.00 0.00 89 1010.6
20180921031504 61 212 0.0 9.0 0.00 0.00 0.00 89 1010.6
20180921031005 61 166 0.0 10.0 0.00 0.00 0.00 89 1010.5
20180921030505 61 200 4.0 7.0 0.00 0.00 0.00 89 1010.5
20180921030005 61 177 0.0 9.0 0.00 0.00 0.00 89 1010.5
20180921025505 61 175 9.0 10.0 0.00 0.00 0.00 89 1010.3
20180921025005 61 191 0.0 10.0 0.00 0.00 0.00 89 1010.3
20180921024505 61 195 0.0 6.0 0.00 0.00 0.00 89 1010.3
20180921024005 61 165 3.0 10.0 0.00 0.00 0.00 89 1010.3
20180921023505 61 145 7.0 8.0 0.00 0.00 0.00 89 1010.3
20180921023004 61 152 0.0 8.0 0.00 0.00 0.00 89 1010.3
20180921022504 60 149 0.0 11.0 0.00 0.00 0.00 89 1010.2
20180921022004 61 186 0.0 13.0 0.00 0.00 0.00 89 1010.2
20180921021505 61 185 3.0 13.0 0.00 0.00 0.00 89 1010.2
20180921021005 61 184 0.0 15.0 0.00 0.00 0.00 89 1010.2
20180921020505 61 188 6.0 14.0 0.00 0.00 0.00 89 1010.2
20180921020005 61 110 0.0 11.0 0.00 0.00 0.00 89 1010.2
20180921015505 61 162 2.0 10.0 0.00 0.00 0.00 89 1010.1
20180921015005 61 156 6.0 13.0 0.00 0.00 0.00 89 1010.1
20180921014505 61 169 9.0 14.0 0.00 0.00 0.00 89 1010.1
20180921014005 61 160 4.0 12.0 0.00 0.00 0.00 89 1010.1
20180921013505 61 183 11.0 12.0 0.00 0.00 0.00 89 1010.1
20180921013005 61 186 4.0 10.0 0.00 0.00 0.00 89 1009.9
20180921012504 61 180 6.0 14.0 0.00 0.00 0.00 88 1009.9
20180921012005 61 183 12.0 15.0 0.00 0.00 0.00 88 1009.9
20180921011505 61 176 4.0 15.0 0.00 0.00 0.00 88 1009.9
20180921011005 61 179 11.0 17.0 0.00 0.00 0.00 88 1009.9
20180921010005 61 193 4.0 11.0 0.00 0.00 0.00 88 1009.8
20180921005504 61 172 8.0 14.0 0.00 0.00 0.00 88 1009.7
20180921005005 61 199 0.0 10.0 0.00 0.00 0.00 87 1009.6
20180921004505 61 204 4.0 15.0 0.00 0.00 0.00 87 1009.5
20180921004005 61 181 7.0 15.0 0.00 0.00 0.00 87 1009.6
20180921003505 61 188 0.0 15.0 0.00 0.00 0.00 87 1009.6
20180921003005 61 130 0.0 14.0 0.00 0.00 0.00 87 1009.4
20180921002504 62 141 3.0 14.0 0.00 0.00 0.00 87 1009.5
20180921002005 62 208 0.0 13.0 0.00 0.00 0.00 86 1009.6
20180921001505 62 173 7.0 13.0 0.00 0.00 0.00 86 1009.5
20180921001005 62 183 9.0 10.0 0.00 0.00 0.00 86 1009.5
20180921000505 62 187 1.0 11.0 0.00 0.00 0.00 87 1009.4
20180921000005 61 161 0.0 8.0 0.00 0.00 0.00 86 1009.3
20180920235505 61 181 2.0 5.0 0.00 0.00 0.00 86 1009.4
20180920235005 62 168 2.0 8.0 0.00 0.00 0.00 86 1009.5
20180920234505 62 137 3.0 11.0 0.00 0.00 0.00 86 1009.3
20180920234004 62 179 0.0 6.0 0.00 0.00 0.00 86 1009.2
20180920233505 62 162 0.0 8.0 0.00 0.00 0.00 86 1009.3
20180920233005 62 172 0.0 7.0 0.00 0.00 0.00 86 1009.3
20180920232504 61 192 4.0 7.0 0.00 0.00 0.00 87 1009.3
20180920232005 61 210 0.0 7.0 0.00 0.00 0.00 87 1009.4
20180920231505 61 166 0.0 4.0 0.00 0.00 0.00 87 1009.4
20180920231005 61 161 1.0 6.0 0.00 0.00 0.00 87 1009.4
20180920230505 61 175 0.0 5.0 0.00 0.00 0.00 87 1009.6
20180920230005 62 48 2.0 7.0 0.00 0.00 0.00 88 1009.5
20180920225504 61 82 2.0 8.0 0.00 0.00 0.00 88 1009.4
20180920225005 61 161 8.0 8.0 0.00 0.00 0.00 88 1009.5
20180920224505 62 172 3.0 6.0 0.00 0.00 0.00 88 1009.4
20180920224005 62 165 0.0 6.0 0.00 0.00 0.00 87 1009.5
20180920223505 62 158 0.0 6.0 0.00 0.00 0.00 87 1009.6
20180920223004 62 31 0.0 5.0 0.00 0.00 0.00 87 1009.6
20180920222005 62 262 0.0 3.0 0.00 0.00 0.00 87 1009.7
20180920221505 62 211 0.0 3.0 0.00 0.00 0.00 87 1009.6
20180920221005 62 177 2.0 2.0 0.00 0.00 0.00 86 1009.7
20180920220505 62 203 0.0 8.0 0.00 0.00 0.00 86 1009.7
20180920220005 62 156 3.0 11.0 0.00 0.00 0.00 86 1009.6
20180920215505 62 162 1.0 11.0 0.00 0.00 0.00 86 1009.6
20180920215005 62 176 2.0 12.0 0.00 0.00 0.00 86 1009.7
20180920214505 62 218 1.0 11.0 0.00 0.00 0.00 86 1009.6
20180920214005 62 180 2.0 11.0 0.00 0.00 0.00 86 1009.6
20180920213505 62 184 6.0 12.0 0.00 0.00 0.00 86 1009.7
20180920213005 62 184 4.0 11.0 0.00 0.00 0.00 86 1009.7
20180920212505 62 220 4.0 11.0 0.00 0.00 0.00 86 1009.6
20180920212005 62 186 5.0 9.0 0.00 0.00 0.00 86 1009.5
20180920211504 63 190 2.0 9.0 0.00 0.00 0.00 86 1009.6
20180920211005 63 172 5.0 7.0 0.00 0.00 0.00 86 1009.5
20180920210505 63 177 0.0 6.0 0.00 0.00 0.00 86 1009.5
20180920210004 63 200 0.0 7.0 0.00 0.00 0.00 85 1009.5
20180920205504 63 195 0.0 5.0 0.00 0.00 0.00 85 1009.5
20180920205005 63 164 0.0 2.0 0.00 0.00 0.00 85 1009.4
20180920204504 63 185 0.0 7.0 0.00 0.00 0.00 85 1009.4
20180920204004 63 175 3.0 4.0 0.00 0.00 0.00 85 1009.4
20180920203505 63 208 1.0 7.0 0.00 0.00 0.00 85 1009.4
20180920203005 63 206 0.0 7.0 0.00 0.00 0.00 84 1009.4
20180920202504 63 195 6.0 6.0 0.00 0.00 0.00 84 1009.4
20180920202005 64 177 0.0 8.0 0.00 0.00 0.00 83 1009.3
20180920201505 64 201 1.0 11.0 0.00 0.00 0.00 83 1009.4
20180920201005 64 187 1.0 14.0 0.00 0.00 0.00 82 1009.3
20180920200005 64 152 4.0 12.0 0.00 0.00 0.00 82 1009.3
20180920195504 65 170 6.0 14.0 0.00 0.00 0.00 82 1009.3
20180920195005 65 189 0.0 14.0 0.00 0.00 0.00 81 1009.3
20180920194505 65 147 0.0 16.0 0.00 0.00 0.00 81 1009.2
20180920194005 65 180 10.0 15.0 0.00 0.00 0.00 81 1009.1
20180920193504 65 64 1.0 17.0 0.00 0.00 0.00 81 1009.2
20180920193005 65 274 2.0 20.0 0.00 0.00 0.00 81 1009.0
20180920192505 65 168 6.0 20.0 0.00 0.00 0.00 81 1009.1
20180920192004 65 177 0.0 20.0 0.00 0.00 0.00 81 1009.1
20180920191504 65 209 10.0 14.0 0.00 0.00 0.00 81 1009.2
20180920191005 65 170 1.0 17.0 0.00 0.00 0.00 81 1009.2
20180920190504 65 168 2.0 16.0 0.00 0.00 0.00 80 1009.1
20180920190004 65 172 11.0 18.0 0.00 0.00 0.00 80 1009.1
20180920185505 65 179 9.0 16.0 0.00 0.00 0.00 80 1009.0
20180920185005 65 173 11.0 17.0 0.00 0.00 0.00 80 1009.0
20180920184504 65 35 1.0 20.0 0.00 0.00 0.00 80 1008.9
20180920184005 65 68 1.0 20.0 0.00 0.00 0.00 80 1008.9
20180920183505 66 151 7.0 11.0 0.00 0.00 0.00 80 1008.8
20180920183004 66 201 1.0 18.0 0.00 0.00 0.00 80 1008.9
20180920182505 66 135 7.0 20.0 0.00 0.00 0.00 80 1008.9
20180920182005 66 177 2.0 13.0 0.00 0.00 0.00 80 1008.9
20180920181505 66 189 12.0 19.0 0.00 0.00 0.00 80 1008.9
20180920181005 66 202 6.0 12.0 0.00 0.00 0.00 80 1008.9
20180920180505 66 199 0.0 14.0 0.00 0.00 0.00 80 1008.8
20180920180005 66 150 2.0 16.0 0.00 0.00 0.00 79 1008.9
20180920175505 66 155 1.0 14.0 0.00 0.00 0.00 79 1008.9
20180920175005 66 174 1.0 9.0 0.00 0.00 0.00 79 1009.2
20180920174505 66 190 6.0 17.0 0.00 0.00 0.00 79 1009.1
20180920174005 66 171 2.0 15.0 0.00 0.00 0.00 79 1009.1
20180920173505 66 176 7.0 16.0 0.00 0.00 0.00 78 1009.2
20180920173005 66 197 0.0 26.0 0.00 0.00 0.00 78 1009.3
20180920172504 66 176 0.0 20.0 0.00 0.00 0.00 78 1009.4
20180920172005 66 201 1.0 17.0 0.00 0.00 0.00 78 1009.4
20180920171004 66 106 0.0 17.0 0.00 0.00 0.00 78 1009.6
20180920170505 67 160 3.0 18.0 0.00 0.00 0.00 77 1009.5
20180920170005 67 150 7.0 21.0 0.00 0.00 0.00 78 1009.5
20180920165504 67 193 14.0 18.0 0.00 0.00 0.00 77 1009.5
20180920165005 67 42 0.0 19.0 0.00 0.00 0.00 77 1009.4
20180920164505 67 165 13.0 16.0 0.00 0.00 0.00 77 1009.4
20180920164005 67 197 3.0 18.0 0.00 0.00 0.00 77 1009.4
20180920163504 67 183 8.0 21.0 0.00 0.00 0.00 77 1009.3
20180920163005 67 179 1.0 25.0 0.00 0.00 0.00 77 1009.4
20180920162504 67 170 1.0 12.0 0.00 0.00 0.00 77 1009.5
20180920162005 67 89 2.0 17.0 0.00 0.00 0.00 76 1009.5
20180920161505 67 115 5.0 19.0 0.00 0.00 0.00 76 1009.5
20180920161005 67 123 4.0 16.0 0.00 0.00 0.00 76 1009.5
20180920160505 67 167 11.0 20.0 0.00 0.00 0.00 76 1009.6
20180920160005 68 89 0.0 19.0 0.00 0.00 0.00 75 1009.6
20180920155505 68 248 2.0 18.0 0.00 0.00 0.00 75 1009.6
20180920155005 68 172 6.0 20.0 0.00 0.00 0.00 75 1009.7
20180920154504 68 162 2.0 18.0 0.00 0.00 0.00 75 1009.6
20180920154005 68 170 8.0 16.0 0.00 0.00 0.00 75 1009.5
20180920153504 68 166 3.0 18.0 0.00 0.00 0.00 74 1009.4
20180920153005 68 170 7.0 16.0 0.00 0.00 0.00 74 1009.5
20180920152505 68 179 7.0 18.0 0.00 0.00 0.00 74 1009.5
20180920152004 68 197 0.0 11.0 0.00 0.00 0.00 75 1009.4
20180920151505 68 156 0.0 16.0 0.00 0.00 0.00 74 1009.5
20180920151005 68 149 0.0 17.0 0.00 0.00 0.00 74 1009.5
20180920150504 69 185 5.0 6.0 0.00 0.00 0.00 74 1009.4
20180920150005 69 199 0.0 12.0 0.00 0.00 0.00 74 1009.5
20180920145505 69 208 6.0 12.0 0.00 0.00 0.00 74 1009.5
20180920145005 69 253 0.0 18.0 0.00 0.00 0.00 73 1009.4
20180920144505 69 204 7.0 22.0 0.00 0.00 0.00 73 1009.4
20180920144005 69 180 15.0 17.0 0.00 0.00 0.00 73 1009.3
20180920143005 69 193 4.0 16.0 0.00 0.00 0.00 73 1009.3
20180920142505 69 182 9.0 12.0 0.00 0.00 0.00 72 1009.1
20180920142005 69 170 7.0 18.0 0.00 0.00 0.00 72 1009.1
20180920141505 70 145 4.0 15.0 0.00 0.00 0.00 72 1008.9
20180920141005 70 165 1.0 13.0 0.00 0.00 0.00 72 1008.9
20180920140504 70 199 4.0 18.0 0.00 0.00 0.00 72 1008.9
20180920140005 70 190 14.0 22.0 0.00 0.00 0.00 72 1008.9
20180920135505 70 158 4.0 14.0 0.00 0.00 0.00 72 1009.0
20180920135005 69 164 5.0 12.0 0.00 0.00 0.00 72 1009.1
20180920134505 69 170 7.0 17.0 0.00 0.00 0.00 72 1009.2
20180920134004 69 71 12.0 22.0 0.00 0.00 0.00 71 1009.2
20180920133505 69 149 0.0 16.0 0.00 0.00 0.00 72 1009.3
20180920133004 70 180 5.0 20.0 0.00 0.00 0.00 72 1009.3
20180920132505 70 161 2.0 12.0 0.00 0.00 0.00 72 1009.4
20180920132005 69 200 9.0 14.0 0.00 0.00 0.00 72 1009.4
20180920131504 69 193 5.0 18.0 0.00 0.00 0.00 72 1009.4
20180920131005 69 189 18.0 22.0 0.00 0.00 0.00 71 1009.5
20180920130505 69 168 5.0 13.0 0.00 0.00 0.00 72 1009.5
20180920130005 69 65 0.0 17.0 0.00 0.00 0.00 73 1009.4
20180920125504 69 240 0.0 19.0 0.00 0.00 0.00 72 1009.4
20180920125005 69 180 7.0 16.0 0.00 0.00 0.00 72 1009.5
20180920124504 69 184 8.0 21.0 0.00 0.00 0.00 72 1009.5
20180920124005 69 63 0.0 21.0 0.00 0.00 0.00 72 1009.6
20180920123505 69 185 10.0 23.0 0.00 0.00 0.00 73 1009.6
20180920123005 69 157 2.0 12.0 0.00 0.00 0.00 73 1009.7
20180920122505 69 197 1.0 23.0 0.00 0.00 0.00 73 1009.7
20180920122005 69 160 8.0 17.0 0.00 0.00 0.00 73 1009.7
20180920121505 69 121 1.0 19.0 0.00 0.00 0.00 73 1009.7
20180920121005 69 196 16.0 21.0 0.00 0.00 0.00 73 1009.8
20180920120504 69 187 5.0 15.0 0.00 0.00 0.00 73 1009.8
20180920120005 69 187 5.0 17.0 0.00 0.00 0.00 72 1009.7
20180920115505 69 147 5.0 17.0 0.00 0.00 0.00 73 1009.7
20180920115005 69 176 3.0 20.0 0.00 0.00 0.00 73 1009.7
20180920114505 69 159 9.0 12.0 0.00 0.00 0.00 73 1009.6
20180920114005 69 139 1.0 13.0 0.00 0.00 0.00 74 1009.6
20180920113505 69 183 9.0 13.0 0.00 0.00 0.00 74 1009.6
20180920113005 68 160 1.0 12.0 0.00 0.00 0.00 75 1009.7
20180920112504 68 173 5.0 15.0 0.00 0.00 0.00 75 1009.6
20180920112005 68 182 9.0 15.0 0.00 0.00 0.00 75 1009.6
20180920111505 68 179 1.0 11.0 0.00 0.00 0.00 76 1009.6
20180920111005 68 97 0.0 14.0 0.00 0.00 0.00 76 1009.6
20180920110504 67 190 4.0 11.0 0.00 0.00 0.00 76 1009.7
20180920110005 68 162 3.0 13.0 0.00 0.00 0.00 76 1009.7
20180920105504 67 129 0.0 10.0 0.00 0.00 0.00 77 1009.7
20180920105005 67 181 3.0 14.0 0.00 0.00 0.00 76 1009.8
20180920104505 67 125 0.0 17.0 0.00 0.00 0.00 77 1009.8
20180920104005 67 143 1.0 16.0 0.00 0.00 0.00 77 1009.8
20180920103504 66 221 9.0 13.0 0.00 0.00 0.00 78 1009.7
20180920103005 66 170 3.0 16.0 0.00 0.00 0.00 79 1009.8
20180920102505 66 147 4.0 15.0 0.00 0.00 0.00 80 1009.8
20180920102005 66 181 11.0 16.0 0.00 0.00 0.00 80 1009.8
20180920101505 65 97 0.0 14.0 0.00 0.00 0.00 80 1009.9
20180920101005 65 151 0.0 12.0 0.00 0.00 0.00 80 1009.8
20180920100505 65 174 4.0 19.0 0.00 0.00 0.00 80 1009.7
20180920100005 65 172 1.0 14.0 0.00 0.00 0.00 80 1009.8
20180920095005 65 210 1.0 14.0 0.00 0.00 0.00 80 1009.8
20180920094504 65 141 0.0 11.0 0.00 0.00 0.00 81 1009.9
20180920094005 65 168 1.0 9.0 0.00 0.00 0.00 81 1009.9
20180920093505 64 103 1.0 17.0 0.00 0.00 0.00 80 1009.9
20180920093005 65 154 0.0 17.0 0.00 0.00 0.00 80 1010.0
20180920092504 65 163 8.0 9.0 0.00 0.00 0.00 80 1010.0
20180920092005 65 135 4.0 12.0 0.00 0.00 0.00 80 1010.0
20180920091509 65 139 0.0 11.0 0.00 0.00 0.00 81 1010.0
20180920091005 65 35 0.0 16.0 0.00 0.00 0.00 81 1010.0
20180920090504 64 172 4.0 14.0 0.00 0.00 0.00 81 1010.0
20180920090005 64 162 1.0 8.0 0.00 0.00 0.00 82 1009.8
20180920085505 64 187 4.0 7.0 0.00 0.00 0.00 82 1009.9
20180920085005 64 195 0.0 7.0 0.00 0.00 0.00 83 1010.0
20180920084504 63 169 0.0 9.0 0.00 0.00 0.00 84 1010.1
20180920084005 63 189 0.0 10.0 0.00 0.00 0.00 84 1010.2
20180920083504 63 188 7.0 10.0 0.00 0.00 0.00 84 1010.2
20180920083005 63 135 1.0 7.0 0.00 0.00 0.00 84 1010.2
20180920082505 63 156 2.0 12.0 0.00 0.00 0.00 84 1010.2
20180920082005 63 195 9.0 16.0 0.00 0.00 0.00 84 1010.2
20180920081505 63 198 3.0 8.0 0.00 0.00 0.00 85 1010.2
20180920081005 62 168 7.0 14.0 0.00 0.00 0.00 84 1010.2
20180920080504 63 172 15.0 15.0 0.00 0.00 0.00 84 1010.1
20180920080005 62 8 0.0 5.0 0.00 0.00 0.00 85 1010.0
20180920075504 62 131 2.0 8.0 0.00 0.00 0.00 86 1010.1
20180920075004 62 177 2.0 9.0 0.00 0.00 0.00 86 1010.1
20180920074505 61 98 0.0 4.0 0.00 0.00 0.00 87 1010.2
20180920074005 61 145 0.0 13.0 0.00 0.00 0.00 87 1010.2
20180920073504 61 191 4.0 15.0 0.00 0.00 0.00 87 1010.3